Location: Basse Occidentale du Courleau
(48.3833°N, 4.8333°W)
Time: 19:55:19
(UTC+00:00)

SPOT 1/Viking Rocket - Pass Details

Date: 05 July 2020
Orbit: 778 x 793 km, 98.5° (Epoch: 05 August)

Event Time Altitude Azimuth Distance (km) Brightness Sun altitude
Exits shadow 21:31:51 - 165° (SSE) 2,436 5.5 -9.2°
Reaches altitude 10° 21:32:08 10° 165° (SSE) 2,327 5.4 -9.2°
Maximum altitude 21:37:17 86° 255° (WSW) 790 3.6 -9.7°
Drops below altitude 10° 21:42:29 10° 345° (NNW) 2,352 7.2 -10.3°
Sets 21:44:49 0° 346° (NNW) 3,288 8.2 -10.5°
